Weather History for KNDZ - September, 2012

Change the Weather History Date:

Tuesday, September 18, 2012

  Actual Average (KNSE) Record (KNSE)
Temperature  
Mean Temperature 74 °F -  
Max Temperature 82 °F 83 °F 96 °F (2010)
Min Temperature 68 °F 67 °F 64 °F (2000)
Cooling Degree Days 10    
Growing Degree Days 24 (Base 50)    
Moisture  
Dew Point 70 °F    
Average Humidity 85    
Maximum Humidity 94    
Minimum Humidity 62    
Precipitation  
Precipitation 0.05 in - - ()
Sea Level Pressure  
Sea Level Pressure 29.78 in    
Wind  
Wind Speed 6 mph (West)    
Max Wind Speed 13 mph    
Max Gust Speed 20 mph    
Visibility 10 miles    
Events Rain , Thunderstorm    
Averages and records for this station are not official NWS values.
T = Trace of Precipitation, MM = Missing Value Source: NWS Daily Summary

Daily Weather History Graph

Daily Weather History Graph

Search for Another Location

Airport or City:

Trip Planner

Search our weather history database for the weather conditions in past years. The results will help you decide how hot, cold, wet, or windy it might be!

Date:

Astronomy

Sep. 18, 2012 Rise Set
Actual Time 6:34 AM CDT 6:49 PM CDT
Civil Twilight 6:10 AM CDT 7:13 PM CDT
Nautical Twilight 5:42 AM CDT 7:41 PM CDT
Astronomical Twilight 5:13 AM CDT 8:09 PM CDT
Moon 9:17 AM CDT (9/18) 8:30 PM CDT (9/18)
Length of Visible Light 13h 02m
Length of Day
12h 14m
Waxing Crescent, 9% of the Moon is Illuminated
Sep 18
Waxing Crescent
Sep 22
First Quarter
Sep 29
Full
Oct 8
Last Quarter
Oct 15
New

Hourly Weather History & Observations

Time (CDT) Temp. Heat Index Dew Point Humidity Pressure Visibility Wind Dir Wind Speed Gust Speed Precip Events Conditions
12:25 AM 73.4 °F - 71.6 °F 94% 29.77 in 10.0 mi South 4.6 mph - N/A   Mostly Cloudy
12:43 AM 73.4 °F - 71.6 °F 94% 29.77 in 10.0 mi South 5.8 mph - N/A   Mostly Cloudy
12:51 AM 75.2 °F - 73.4 °F 94% 29.77 in 10.0 mi SSE 4.6 mph - N/A   Mostly Cloudy
12:56 AM 75.0 °F - 73.0 °F 94% 29.72 in 10.0 mi SE 5.8 mph - N/A   Scattered Clouds
1:10 AM 75.2 °F - 73.4 °F 94% 29.76 in 10.0 mi South 5.8 mph - N/A   Mostly Cloudy
1:20 AM 75.2 °F - 73.4 °F 94% 29.76 in 10.0 mi South 4.6 mph - N/A   Scattered Clouds
1:29 AM 75.2 °F - 73.4 °F 94% 29.76 in 10.0 mi South 6.9 mph - N/A   Mostly Cloudy
1:37 AM 75.2 °F - 73.4 °F 94% 29.75 in 10.0 mi South 8.1 mph - N/A   Mostly Cloudy
1:48 AM 77.0 °F - 73.4 °F 89% 29.75 in 10.0 mi SSW 4.6 mph - N/A   Mostly Cloudy
1:56 AM 77.0 °F - 75.0 °F 94% 29.71 in 10.0 mi West 4.6 mph - N/A   Mostly Cloudy
2:04 AM 77.0 °F - 73.4 °F 89% 29.75 in 10.0 mi Variable 5.8 mph - N/A   Mostly Cloudy
2:24 AM 77.0 °F - 73.4 °F 89% 29.74 in 10.0 mi SW 6.9 mph - N/A Thunderstorm Thunderstorm
2:56 AM 77.0 °F - 73.9 °F 90% 29.70 in 10.0 mi West 10.4 mph 19.6 mph 0.00 in Rain , Thunderstorm Light Thunderstorms and Rain
3:08 AM 75.2 °F - 69.8 °F 83% 29.75 in 10.0 mi Variable 6.9 mph - 0.00 in Thunderstorm Thunderstorm
3:39 AM 73.4 °F - 69.8 °F 88% 29.75 in 10.0 mi Variable 4.6 mph - 0.00 in   Partly Cloudy
3:56 AM 73.9 °F - 70.0 °F 87% 29.70 in 10.0 mi SW 5.8 mph - 0.00 in Thunderstorm Thunderstorm
4:23 AM 73.4 °F - 69.8 °F 88% 29.74 in 10.0 mi Variable 4.6 mph - N/A   Partly Cloudy
4:56 AM 73.0 °F - 70.0 °F 90% 29.70 in 10.0 mi SSW 5.8 mph - N/A   Clear
5:56 AM 73.0 °F - 71.1 °F 93% 29.71 in 10.0 mi Variable 3.5 mph - N/A   Partly Cloudy
6:56 AM 73.0 °F - 71.1 °F 93% 29.73 in 10.0 mi WSW 3.5 mph - N/A   Clear
7:56 AM 73.9 °F - 70.0 °F 87% 29.74 in 10.0 mi Variable 4.6 mph - N/A   Clear
8:56 AM 77.0 °F - 69.1 °F 76% 29.76 in 10.0 mi West 6.9 mph - N/A   Clear
9:56 AM 79.0 °F - 70.0 °F 74% 29.78 in 10.0 mi Variable 6.9 mph - N/A   Partly Cloudy
10:56 AM 80.1 °F 82.7 °F 68.0 °F 67% 29.79 in 10.0 mi West 8.1 mph - N/A   Partly Cloudy
11:56 AM 77.0 °F - 72.0 °F 84% 29.79 in 10.0 mi SSE 4.6 mph - 0.05 in   Mostly Cloudy
12:17 PM 78.8 °F - 69.8 °F 74% 29.83 in 10.0 mi NW 8.1 mph 16.1 mph N/A   Overcast
12:30 PM 78.8 °F - 69.8 °F 74% 29.84 in 10.0 mi WNW 4.6 mph 16.1 mph N/A   Mostly Cloudy
12:56 PM 79.0 °F - 69.1 °F 72% 29.79 in 10.0 mi NW 12.7 mph 18.4 mph N/A   Mostly Cloudy
2:56 PM 81.0 °F 83.3 °F 66.9 °F 62% 29.78 in 10.0 mi NW 11.5 mph - N/A   Mostly Cloudy
3:56 PM 78.1 °F - 66.9 °F 68% 29.79 in 10.0 mi NW 5.8 mph - N/A   Overcast
4:56 PM 77.0 °F - 66.9 °F 71% 29.79 in 10.0 mi NNW 12.7 mph - N/A   Overcast
5:56 PM 78.1 °F - 66.9 °F 68% 29.80 in 10.0 mi NNW 10.4 mph - N/A   Clear
6:56 PM 73.9 °F - 68.0 °F 82% 29.81 in 10.0 mi NNW 4.6 mph - N/A   Clear
7:56 PM 72.0 °F - 66.9 °F 84% 29.84 in 10.0 mi NNW 6.9 mph - N/A   Clear
8:56 PM 71.1 °F - 66.0 °F 84% 29.88 in 10.0 mi NW 4.6 mph - N/A   Clear
9:56 PM 70.0 °F - 66.0 °F 87% 29.90 in 10.0 mi NW 5.8 mph - N/A   Clear
10:56 PM 68.0 °F - 66.0 °F 93% 29.92 in 10.0 mi NW 4.6 mph - N/A   Clear
11:56 PM 70.0 °F - 66.0 °F 87% 29.93 in 10.0 mi NNW 6.9 mph - N/A   Clear